Time,TemperatureF,DewpointF,PressureIn,WindDirection,WindDirectionDegrees,WindSpeedMPH,WindSpeedGustMPH,Humidity,HourlyPrecipIn,Conditions,Clouds,dailyrainin,SoftwareType,DateUTC
2013-02-19 00:00:00,35.3,28.8,29.96,NW,306,2.0,13.0,77,0.00,,CLR,0.00,VWS V14.01,2013-02-19 06:00:00,
2013-02-19 00:04:00,36.7,28.9,29.93,NW,309,11.0,16.0,73,0.00,,OVC030,0.00,VWS V14.01,2013-02-19 06:04:00,
2013-02-19 00:09:00,36.6,28.8,29.93,NNW,327,4.0,16.0,73,0.00,,OVC030,0.00,VWS V14.01,2013-02-19 06:09:00,
2013-02-19 00:14:00,36.4,28.9,29.93,WNW,292,2.0,16.0,74,0.00,,OVC030,0.00,VWS V14.01,2013-02-19 06:14:00,
2013-02-19 00:19:00,36.3,28.8,29.94,NW,309,5.0,16.0,74,0.00,,OVC030,0.00,VWS V14.01,2013-02-19 06:19:00,
2013-02-19 00:24:00,36.1,28.6,29.94,WNW,290,3.0,16.0,74,0.00,,OVC030,0.00,VWS V14.01,2013-02-19 06:24:00,
2013-02-19 00:29:00,36.0,28.9,29.94,NW,306,2.0,16.0,75,0.00,,OVC030,0.00,VWS V14.01,2013-02-19 06:29:00,
2013-02-19 00:30:00,34.3,27.5,29.98,NW,315,3.0,12.0,76,0.00,,CLR,0.00,VWS V14.01,2013-02-19 06:30:00,
2013-02-19 00:35:00,35.7,28.9,29.95,NW,314,3.0,6.0,76,0.00,,OVC030,0.00,VWS V14.01,2013-02-19 06:35:00,
2013-02-19 00:40:00,35.6,29.1,29.95,WNW,301,3.0,12.0,77,0.00,,OVC030,0.00,VWS V14.01,2013-02-19 06:40:00,
2013-02-19 00:45:00,35.6,28.8,29.95,WNW,298,3.0,13.0,76,0.00,,FEW030,0.00,VWS V14.01,2013-02-19 06:45:00,
2013-02-19 00:50:00,35.6,29.1,29.95,WNW,296,5.0,13.0,77,0.00,,FEW030,0.00,VWS V14.01,2013-02-19 06:50:00,
2013-02-19 00:55:00,35.5,29.0,29.96,WNW,300,5.0,13.0,77,0.00,,FEW030,0.00,VWS V14.01,2013-02-19 06:55:00,
2013-02-19 01:00:00,35.3,28.8,29.96,WSW,243,5.0,6.0,77,0.00,,FEW030,0.00,VWS V14.01,2013-02-19 07:00:00,
2013-02-19 01:05:00,35.2,29.0,29.97,WNW,292,3.0,9.0,78,0.00,,FEW030,0.00,VWS V14.01,2013-02-19 07:05:00,
2013-02-19 01:10:00,35.1,28.9,29.97,West,279,2.0,10.0,78,0.00,,FEW030,0.00,VWS V14.01,2013-02-19 07:10:00,
2013-02-19 01:16:00,34.8,28.3,29.97,West,275,5.0,12.0,77,0.00,,FEW030,0.00,VWS V14.01,2013-02-19 07:16:00,
2013-02-19 01:21:00,34.6,27.8,29.97,NW,317,3.0,12.0,76,0.00,,FEW030,0.00,VWS V14.01,2013-02-19 07:21:00,
2013-02-19 01:26:00,34.4,27.6,29.98,NW,307,1.0,12.0,76,0.00,,FEW030,0.00,VWS V14.01,2013-02-19 07:26:00,
2013-02-19 01:30:00,31.9,23.2,29.99,WNW,293,2.0,13.0,70,0.00,,CLR,0.00,VWS V14.01,2013-02-19 07:30:00,
2013-02-19 01:31:00,34.2,27.4,29.98,WNW,302,6.0,6.0,76,0.00,,FEW030,0.00,VWS V14.01,2013-02-19 07:31:00,
2013-02-19 01:36:00,34.0,27.2,29.98,NW,313,7.0,9.0,76,0.00,,FEW030,0.00,VWS V14.01,2013-02-19 07:36:00,
2013-02-19 01:41:00,33.8,26.7,29.98,NW,310,3.0,9.0,75,0.00,,FEW026,0.00,VWS V14.01,2013-02-19 07:41:00,
2013-02-19 01:46:00,33.5,26.4,29.98,NW,312,2.0,16.0,75,0.00,,FEW026,0.00,VWS V14.01,2013-02-19 07:46:00,
2013-02-19 01:51:00,33.3,26.2,29.98,WNW,289,6.0,16.0,75,0.00,,FEW026,0.00,VWS V14.01,2013-02-19 07:51:00,
2013-02-19 01:56:00,33.1,25.4,29.99,WNW,300,4.0,16.0,73,0.00,,FEW026,0.00,VWS V14.01,2013-02-19 07:56:00,
2013-02-19 02:00:00,31.3,24.0,30.00,SSW,209,7.0,11.0,74,0.00,,CLR,0.00,VWS V14.01,2013-02-19 08:00:00,
2013-02-19 02:02:00,32.9,25.2,29.99,WNW,298,1.0,7.0,73,0.00,,FEW026,0.00,VWS V14.01,2013-02-19 08:02:00,
2013-02-19 02:07:00,32.6,24.9,29.99,NW,315,10.0,10.0,73,0.00,,FEW026,0.00,VWS V14.01,2013-02-19 08:07:00,
2013-02-19 02:12:00,32.4,24.7,29.99,WNW,300,12.0,12.0,73,0.00,,FEW026,0.00,VWS V14.01,2013-02-19 08:12:00,
2013-02-19 02:17:00,32.3,24.3,29.99,WNW,296,5.0,12.0,72,0.00,,FEW026,0.00,VWS V14.01,2013-02-19 08:17:00,
2013-02-19 02:22:00,32.1,24.1,29.99,NNW,333,5.0,12.0,72,0.00,,FEW026,0.00,VWS V14.01,2013-02-19 08:22:00,
2013-02-19 02:27:00,32.0,23.7,29.99,WNW,283,4.0,13.0,71,0.00,,FEW026,0.00,VWS V14.01,2013-02-19 08:27:00,
2013-02-19 02:30:00,30.6,22.7,30.00,NW,304,2.0,11.0,72,0.00,,CLR,0.00,VWS V14.01,2013-02-19 08:30:00,
2013-02-19 02:32:00,31.9,23.2,29.99,NW,314,4.0,5.0,70,0.00,,FEW026,0.00,VWS V14.01,2013-02-19 08:32:00,
2013-02-19 02:38:00,31.8,23.1,29.99,WNW,294,3.0,11.0,70,0.00,,FEW026,0.00,VWS V14.01,2013-02-19 08:38:00,
2013-02-19 02:43:00,31.7,23.4,30.00,West,278,5.0,11.0,71,0.00,,CLR,0.00,VWS V14.01,2013-02-19 08:43:00,
2013-02-19 02:48:00,31.6,24.0,29.99,WNW,296,2.0,11.0,73,0.00,,CLR,0.00,VWS V14.01,2013-02-19 08:48:00,
2013-02-19 02:53:00,31.4,24.1,30.00,WNW,288,2.0,11.0,74,0.00,,CLR,0.00,VWS V14.01,2013-02-19 08:53:00,
2013-02-19 02:58:00,31.2,23.6,30.00,NNW,348,5.0,11.0,73,0.00,,CLR,0.00,VWS V14.01,2013-02-19 08:58:00,
2013-02-19 03:00:00,30.2,21.6,30.00,NW,317,6.0,15.0,70,0.00,,CLR,0.00,VWS V14.01,2013-02-19 09:00:00,
2013-02-19 03:03:00,31.2,23.2,30.00,WNW,301,2.0,11.0,72,0.00,,CLR,0.00,VWS V14.01,2013-02-19 09:03:00,
2013-02-19 03:08:00,31.2,22.9,30.00,West,272,3.0,11.0,71,0.00,,CLR,0.00,VWS V14.01,2013-02-19 09:08:00,
2013-02-19 03:13:00,31.1,22.8,30.01,West,281,2.0,11.0,71,0.00,,CLR,0.00,VWS V14.01,2013-02-19 09:13:00,
2013-02-19 03:18:00,31.0,23.0,30.01,WNW,292,0.0,11.0,72,0.00,,CLR,0.00,VWS V14.01,2013-02-19 09:18:00,
2013-02-19 03:23:00,30.8,22.9,30.01,NW,313,5.0,11.0,72,0.00,,CLR,0.00,VWS V14.01,2013-02-19 09:23:00,
2013-02-19 03:29:00,30.6,22.7,30.00,WNW,292,3.0,11.0,72,0.00,,CLR,0.00,VWS V14.01,2013-02-19 09:29:00,
2013-02-19 03:30:00,29.6,21.7,30.01,WSW,257,6.0,9.0,72,0.00,,CLR,0.00,VWS V14.01,2013-02-19 09:30:00,
2013-02-19 03:34:00,30.5,22.2,30.00,West,269,4.0,11.0,71,0.00,,CLR,0.00,VWS V14.01,2013-02-19 09:34:00,
2013-02-19 03:39:00,30.5,22.2,30.00,WNW,297,4.0,11.0,71,0.00,,CLR,0.00,VWS V14.01,2013-02-19 09:39:00,
2013-02-19 03:44:00,30.5,21.9,30.00,NW,307,5.0,15.0,70,0.00,,CLR,0.00,VWS V14.01,2013-02-19 09:44:00,
2013-02-19 03:49:00,30.4,21.8,30.00,West,267,6.0,15.0,70,0.00,,CLR,0.00,VWS V14.01,2013-02-19 09:49:00,
2013-02-19 03:54:00,30.3,21.7,30.00,WNW,300,9.0,15.0,70,0.00,,CLR,0.00,VWS V14.01,2013-02-19 09:54:00,
2013-02-19 03:59:00,30.2,21.6,30.00,NW,307,3.0,15.0,70,0.00,,CLR,0.00,VWS V14.01,2013-02-19 09:59:00,
2013-02-19 04:00:00,29.5,21.6,30.02,WNW,290,3.0,13.0,72,0.00,,CLR,0.00,VWS V14.01,2013-02-19 10:00:00,
2013-02-19 04:04:00,30.1,21.5,30.00,NW,313,3.0,9.0,70,0.00,,CLR,0.00,VWS V14.01,2013-02-19 10:04:00,
2013-02-19 04:10:00,30.1,21.5,30.01,West,274,2.0,9.0,70,0.00,,CLR,0.00,VWS V14.01,2013-02-19 10:10:00,
2013-02-19 04:15:00,29.9,21.7,30.01,NW,314,2.0,9.0,71,0.00,,CLR,0.00,VWS V14.01,2013-02-19 10:15:00,
2013-02-19 04:20:00,29.8,21.6,30.01,West,281,2.0,9.0,71,0.00,,CLR,0.00,VWS V14.01,2013-02-19 10:20:00,
2013-02-19 04:25:00,29.7,21.5,30.01,WNW,302,5.0,9.0,71,0.00,,CLR,0.00,VWS V14.01,2013-02-19 10:25:00,
2013-02-19 04:30:00,29.6,21.7,30.01,NNW,347,4.0,6.0,72,0.00,,CLR,0.00,VWS V14.01,2013-02-19 10:30:00,
2013-02-19 04:35:00,29.6,21.7,30.01,NW,311,4.0,9.0,72,0.00,,CLR,0.00,VWS V14.01,2013-02-19 10:35:00,
2013-02-19 04:40:00,29.6,21.7,30.01,WNW,294,5.0,13.0,72,0.00,,CLR,0.00,VWS V14.01,2013-02-19 10:40:00,
2013-02-19 04:45:00,29.6,21.7,30.02,NW,306,5.0,13.0,72,0.00,,CLR,0.00,VWS V14.01,2013-02-19 10:45:00,
2013-02-19 04:50:00,29.5,21.6,30.02,WNW,282,3.0,13.0,72,0.00,,CLR,0.00,VWS V14.01,2013-02-19 10:50:00,
2013-02-19 04:56:00,29.5,21.6,30.02,NW,313,3.0,13.0,72,0.00,,CLR,0.00,VWS V14.01,2013-02-19 10:56:00,
2013-02-19 05:00:00,28.7,21.2,30.04,NW,306,0.0,8.0,73,0.00,,CLR,0.00,VWS V14.01,2013-02-19 11:00:00,
2013-02-19 05:01:00,29.5,21.6,30.02,NW,311,3.0,4.0,72,0.00,,CLR,0.00,VWS V14.01,2013-02-19 11:01:00,
2013-02-19 05:06:00,29.5,21.6,30.02,WNW,295,2.0,10.0,72,0.00,,CLR,0.00,VWS V14.01,2013-02-19 11:06:00,
2013-02-19 05:11:00,29.4,21.5,30.03,NNW,335,3.0,10.0,72,0.00,,CLR,0.00,VWS V14.01,2013-02-19 11:11:00,
2013-02-19 05:16:00,29.4,21.5,30.03,WNW,294,2.0,10.0,72,0.00,,CLR,0.00,VWS V14.01,2013-02-19 11:16:00,
2013-02-19 05:21:00,29.3,21.4,30.03,WNW,300,1.0,10.0,72,0.00,,CLR,0.00,VWS V14.01,2013-02-19 11:21:00,
2013-02-19 05:26:00,29.3,21.4,30.03,NNW,338,2.0,10.0,72,0.00,,CLR,0.00,VWS V14.01,2013-02-19 11:26:00,
2013-02-19 05:30:00,27.9,20.4,30.06,West,259,1.0,4.0,73,0.00,,CLR,0.00,VWS V14.01,2013-02-19 11:30:00,
2013-02-19 05:32:00,29.2,21.3,30.03,NW,304,3.0,3.0,72,0.00,,CLR,0.00,VWS V14.01,2013-02-19 11:32:00,
2013-02-19 05:37:00,29.1,21.2,30.03,WNW,300,2.0,7.0,72,0.00,,CLR,0.00,VWS V14.01,2013-02-19 11:37:00,
2013-02-19 05:42:00,29.0,21.1,30.04,WNW,296,2.0,8.0,72,0.00,,CLR,0.00,VWS V14.01,2013-02-19 11:42:00,
2013-02-19 05:47:00,29.0,21.1,30.04,NNW,327,0.0,8.0,72,0.00,,CLR,0.00,VWS V14.01,2013-02-19 11:47:00,
2013-02-19 05:52:00,28.8,20.9,30.04,West,279,3.0,8.0,72,0.00,,CLR,0.00,VWS V14.01,2013-02-19 11:52:00,
2013-02-19 05:57:00,28.8,20.9,30.04,West,273,2.0,8.0,72,0.00,,CLR,0.00,VWS V14.01,2013-02-19 11:57:00,
2013-02-19 06:00:00,27.7,20.2,30.07,West,274,2.0,6.0,73,0.00,,CLR,0.00,VWS V14.01,2013-02-19 12:00:00,
2013-02-19 06:02:00,28.7,21.1,30.05,NW,305,0.0,2.0,73,0.00,,CLR,0.00,VWS V14.01,2013-02-19 12:02:00,
2013-02-19 06:08:00,28.5,21.0,30.05,WNW,284,0.0,2.0,73,0.00,,CLR,0.00,VWS V14.01,2013-02-19 12:08:00,
2013-02-19 06:13:00,28.3,20.8,30.05,WNW,290,0.0,3.0,73,0.00,,CLR,0.00,VWS V14.01,2013-02-19 12:13:00,
2013-02-19 06:18:00,28.1,20.6,30.05,WNW,301,2.0,3.0,73,0.00,,CLR,0.00,VWS V14.01,2013-02-19 12:18:00,
2013-02-19 06:23:00,28.0,20.5,30.06,WNW,283,0.0,4.0,73,0.00,,CLR,0.00,VWS V14.01,2013-02-19 12:23:00,
2013-02-19 06:28:00,27.9,20.4,30.06,WNW,284,2.0,4.0,73,0.00,,CLR,0.00,VWS V14.01,2013-02-19 12:28:00,
2013-02-19 06:30:00,28.3,20.8,30.07,WNW,292,0.0,5.0,73,0.00,,CLR,0.00,VWS V14.01,2013-02-19 12:30:00,
2013-02-19 06:33:00,27.8,20.3,30.06,West,277,2.0,2.0,73,0.00,,CLR,0.00,VWS V14.01,2013-02-19 12:33:00,
2013-02-19 06:38:00,27.8,20.3,30.06,NW,306,0.0,4.0,73,0.00,,CLR,0.00,VWS V14.01,2013-02-19 12:38:00,
2013-02-19 06:43:00,27.8,20.3,30.07,WNW,284,0.0,4.0,73,0.00,,CLR,0.00,VWS V14.01,2013-02-19 12:43:00,
2013-02-19 06:48:00,27.7,20.2,30.07,WNW,298,0.0,4.0,73,0.00,,CLR,0.00,VWS V14.01,2013-02-19 12:48:00,
2013-02-19 06:54:00,27.7,19.9,30.07,WNW,297,0.0,6.0,72,0.00,,CLR,0.00,VWS V14.01,2013-02-19 12:54:00,
2013-02-19 06:59:00,27.6,20.1,30.07,West,266,1.0,6.0,73,0.00,,CLR,0.00,VWS V14.01,2013-02-19 12:59:00,
2013-02-19 07:00:00,31.2,21.9,30.09,WNW,296,3.0,5.0,68,0.00,,CLR,0.00,VWS V14.01,2013-02-19 13:00:00,
2013-02-19 07:04:00,27.7,19.9,30.07,WNW,289,0.0,3.0,72,0.00,,CLR,0.00,VWS V14.01,2013-02-19 13:04:00,
2013-02-19 07:09:00,27.7,20.2,30.07,West,273,0.0,3.0,73,0.00,,CLR,0.00,VWS V14.01,2013-02-19 13:09:00,
2013-02-19 07:14:00,27.7,20.2,30.07,West,279,1.0,3.0,73,0.00,,CLR,0.00,VWS V14.01,2013-02-19 13:14:00,
2013-02-19 07:19:00,27.8,20.3,30.07,West,277,0.0,3.0,73,0.00,,CLR,0.00,VWS V14.01,2013-02-19 13:19:00,
2013-02-19 07:24:00,28.0,20.8,30.07,WNW,288,2.0,5.0,74,0.00,,CLR,0.00,VWS V14.01,2013-02-19 13:24:00,
2013-02-19 07:29:00,28.3,20.8,30.07,WNW,292,1.0,5.0,73,0.00,,CLR,0.00,VWS V14.01,2013-02-19 13:29:00,
2013-02-19 07:30:00,32.8,21.2,30.11,WSW,255,4.0,10.0,62,0.00,,CLR,0.00,VWS V14.01,2013-02-19 13:30:00,
2013-02-19 07:35:00,28.8,20.9,30.08,NW,321,0.0,3.0,72,0.00,,CLR,0.00,VWS V14.01,2013-02-19 13:35:00,
2013-02-19 07:40:00,29.3,21.4,30.08,WNW,282,1.0,4.0,72,0.00,,CLR,0.00,VWS V14.01,2013-02-19 13:40:00,
2013-02-19 07:45:00,29.9,21.0,30.08,West,261,1.0,5.0,69,0.00,,CLR,0.00,VWS V14.01,2013-02-19 13:45:00,
2013-02-19 07:50:00,30.4,21.5,30.08,West,279,2.0,5.0,69,0.00,,CLR,0.00,VWS V14.01,2013-02-19 13:50:00,
2013-02-19 07:55:00,30.9,21.6,30.09,WNW,295,0.0,5.0,68,0.00,,CLR,0.00,VWS V14.01,2013-02-19 13:55:00,
2013-02-19 08:00:00,31.2,21.2,30.09,WNW,288,2.0,3.0,66,0.00,,CLR,0.00,VWS V14.01,2013-02-19 14:00:00,
2013-02-19 08:05:00,31.6,21.6,30.09,West,275,2.0,6.0,66,0.00,,CLR,0.00,VWS V14.01,2013-02-19 14:05:00,
2013-02-19 08:10:00,31.9,21.1,30.10,NW,314,2.0,8.0,64,0.00,,CLR,0.00,VWS V14.01,2013-02-19 14:10:00,
2013-02-19 08:15:00,32.1,20.9,30.10,West,277,1.0,9.0,63,0.00,,CLR,0.00,VWS V14.01,2013-02-19 14:15:00,
2013-02-19 08:21:00,32.5,20.9,30.10,NW,308,2.0,10.0,62,0.00,,CLR,0.00,VWS V14.01,2013-02-19 14:21:00,
2013-02-19 08:26:00,32.7,21.1,30.11,WNW,291,4.0,10.0,62,0.00,,CLR,0.00,VWS V14.01,2013-02-19 14:26:00,
2013-02-19 08:30:00,35.7,22.0,30.12,NNW,329,5.0,19.0,57,0.00,,CLR,0.00,VWS V14.01,2013-02-19 14:30:00,
2013-02-19 08:31:00,32.9,20.9,30.11,West,280,3.0,6.0,61,0.00,,CLR,0.00,VWS V14.01,2013-02-19 14:31:00,
2013-02-19 08:36:00,33.2,21.2,30.11,WNW,294,3.0,10.0,61,0.00,,CLR,0.00,VWS V14.01,2013-02-19 14:36:00,
2013-02-19 08:41:00,33.5,21.5,30.11,NW,311,6.0,10.0,61,0.00,,CLR,0.00,VWS V14.01,2013-02-19 14:41:00,
2013-02-19 08:46:00,33.9,21.5,30.12,WNW,296,5.0,10.0,60,0.00,,CLR,0.00,VWS V14.01,2013-02-19 14:46:00,
2013-02-19 08:51:00,34.2,21.4,30.12,WNW,291,4.0,12.0,59,0.00,,CLR,0.00,VWS V14.01,2013-02-19 14:51:00,
2013-02-19 08:57:00,34.6,21.4,30.12,NW,311,9.0,15.0,58,0.00,,CLR,0.00,VWS V14.01,2013-02-19 14:57:00,
2013-02-19 09:00:00,37.2,22.5,30.13,West,276,7.0,16.0,55,0.00,,CLR,0.00,VWS V14.01,2013-02-19 15:00:00,
2013-02-19 09:02:00,34.8,21.1,30.12,WSW,254,5.0,11.0,57,0.00,,CLR,0.00,VWS V14.01,2013-02-19 15:02:00,
2013-02-19 09:07:00,35.0,21.3,30.12,NW,307,10.0,14.0,57,0.00,,CLR,0.00,VWS V14.01,2013-02-19 15:07:00,
2013-02-19 09:12:00,35.1,21.8,30.12,West,281,11.0,14.0,58,0.00,,CLR,0.00,VWS V14.01,2013-02-19 15:12:00,
2013-02-19 09:17:00,35.3,21.2,30.13,NNW,327,13.0,16.0,56,0.00,,CLR,0.00,VWS V14.01,2013-02-19 15:17:00,
2013-02-19 09:22:00,35.4,21.3,30.12,WNW,287,6.0,19.0,56,0.00,,CLR,0.00,VWS V14.01,2013-02-19 15:22:00,
2013-02-19 09:27:00,35.6,21.9,30.12,NW,315,6.0,19.0,57,0.00,,CLR,0.00,VWS V14.01,2013-02-19 15:27:00,
2013-02-19 09:30:00,39.3,22.7,30.14,WNW,286,5.0,16.0,51,0.00,,CLR,0.00,VWS V14.01,2013-02-19 15:30:00,
2013-02-19 09:32:00,35.9,22.6,30.13,WNW,303,3.0,11.0,58,0.00,,CLR,0.00,VWS V14.01,2013-02-19 15:32:00,
2013-02-19 09:37:00,36.4,22.2,30.13,WNW,296,8.0,12.0,56,0.00,,CLR,0.00,VWS V14.01,2013-02-19 15:37:00,
2013-02-19 09:42:00,36.6,23.2,30.12,WNW,302,11.0,12.0,58,0.00,,CLR,0.00,VWS V14.01,2013-02-19 15:42:00,
2013-02-19 09:47:00,37.0,22.8,30.13,NNW,336,3.0,13.0,56,0.00,,CLR,0.00,VWS V14.01,2013-02-19 15:47:00,
2013-02-19 09:52:00,37.1,22.0,30.13,NNW,331,9.0,16.0,54,0.00,,CLR,0.00,VWS V14.01,2013-02-19 15:52:00,
2013-02-19 09:58:00,37.2,22.1,30.13,WNW,302,7.0,16.0,54,0.00,,CLR,0.00,VWS V14.01,2013-02-19 15:58:00,
2013-02-19 10:00:00,40.7,22.5,30.15,West,271,4.0,15.0,48,0.00,,CLR,0.00,VWS V14.01,2013-02-19 16:00:00,
2013-02-19 10:03:00,37.3,22.2,30.13,West,267,6.0,13.0,54,0.00,,CLR,0.00,VWS V14.01,2013-02-19 16:03:00,
2013-02-19 10:08:00,37.5,21.9,30.13,NNW,337,7.0,16.0,53,0.00,,CLR,0.00,VWS V14.01,2013-02-19 16:08:00,
2013-02-19 10:13:00,38.0,22.9,30.14,NW,309,6.0,16.0,54,0.00,,CLR,0.00,VWS V14.01,2013-02-19 16:13:00,
2013-02-19 10:18:00,38.5,22.9,30.14,West,273,3.0,16.0,53,0.00,,CLR,0.00,VWS V14.01,2013-02-19 16:18:00,
2013-02-19 10:23:00,38.9,22.8,30.14,WNW,301,4.0,16.0,52,0.00,,CLR,0.00,VWS V14.01,2013-02-19 16:23:00,
2013-02-19 10:28:00,39.3,22.7,30.14,NW,321,8.0,16.0,51,0.00,,CLR,0.00,VWS V14.01,2013-02-19 16:28:00,
2013-02-19 10:30:00,42.2,24.9,30.15,WSW,250,7.0,16.0,50,0.00,,CLR,0.00,VWS V14.01,2013-02-19 16:30:00,
2013-02-19 10:33:00,39.5,22.9,30.14,West,278,9.0,12.0,51,0.00,,CLR,0.00,VWS V14.01,2013-02-19 16:33:00,
2013-02-19 10:38:00,39.8,23.6,30.14,WNW,294,2.0,12.0,52,0.00,,CLR,0.00,VWS V14.01,2013-02-19 16:38:00,
2013-02-19 10:43:00,40.1,23.0,30.15,NW,306,8.0,15.0,50,0.00,,CLR,0.00,VWS V14.01,2013-02-19 16:43:00,
2013-02-19 10:48:00,40.1,23.0,30.15,West,271,2.0,15.0,50,0.00,,CLR,0.00,VWS V14.01,2013-02-19 16:48:00,
2013-02-19 10:53:00,40.5,23.3,30.15,West,281,4.0,15.0,50,0.00,,CLR,0.00,VWS V14.01,2013-02-19 16:53:00,
2013-02-19 10:59:00,40.7,23.0,30.15,West,267,8.0,15.0,49,0.00,,CLR,0.00,VWS V14.01,2013-02-19 16:59:00,
2013-02-19 11:00:00,43.3,24.4,30.16,WNW,292,6.0,12.0,47,0.00,,CLR,0.00,VWS V14.01,2013-02-19 17:00:00,
2013-02-19 11:04:00,40.8,23.1,30.15,West,276,3.0,12.0,49,0.00,,CLR,0.00,VWS V14.01,2013-02-19 17:04:00,
2013-02-19 11:09:00,41.3,23.1,30.16,WNW,292,7.0,15.0,48,0.00,,CLR,0.00,VWS V14.01,2013-02-19 17:09:00,
2013-02-19 11:14:00,41.5,22.8,30.15,WNW,284,6.0,16.0,47,0.00,,CLR,0.00,VWS V14.01,2013-02-19 17:14:00,
2013-02-19 11:19:00,41.7,24.0,30.16,WNW,291,8.0,16.0,49,0.00,,CLR,0.00,VWS V14.01,2013-02-19 17:19:00,
2013-02-19 11:24:00,41.8,23.6,30.16,West,259,10.0,16.0,48,0.00,,CLR,0.00,VWS V14.01,2013-02-19 17:24:00,
2013-02-19 11:29:00,42.2,24.9,30.15,West,275,5.0,16.0,50,0.00,,CLR,0.00,VWS V14.01,2013-02-19 17:29:00,
2013-02-19 11:30:00,45.6,23.3,30.15,West,269,7.0,15.0,41,0.00,,CLR,0.00,VWS V14.01,2013-02-19 17:30:00,
2013-02-19 11:34:00,42.5,24.2,30.16,West,269,7.0,10.0,48,0.00,,CLR,0.00,VWS V14.01,2013-02-19 17:34:00,
2013-02-19 11:39:00,42.3,24.0,30.16,West,278,4.0,10.0,48,0.00,,CLR,0.00,VWS V14.01,2013-02-19 17:39:00,
2013-02-19 11:44:00,42.5,23.7,30.16,West,278,5.0,11.0,47,0.00,,CLR,0.00,VWS V14.01,2013-02-19 17:44:00,
2013-02-19 11:50:00,42.7,23.9,30.16,NW,319,5.0,12.0,47,0.00,,CLR,0.00,VWS V14.01,2013-02-19 17:50:00,
2013-02-19 11:55:00,43.2,23.8,30.16,NW,323,4.0,12.0,46,0.00,,CLR,0.00,VWS V14.01,2013-02-19 17:55:00,
2013-02-19 12:00:00,43.3,24.4,30.16,WNW,286,4.0,12.0,47,0.00,,CLR,0.00,VWS V14.01,2013-02-19 18:00:00,
2013-02-19 12:05:00,43.5,24.6,30.15,NW,304,1.0,12.0,47,0.00,,CLR,0.00,VWS V14.01,2013-02-19 18:05:00,
2013-02-19 12:10:00,44.2,24.8,30.15,West,270,4.0,12.0,46,0.00,,CLR,0.00,VWS V14.01,2013-02-19 18:10:00,
2013-02-19 12:15:00,44.8,23.7,30.15,WNW,300,9.0,12.0,43,0.00,,CLR,0.00,VWS V14.01,2013-02-19 18:15:00,
2013-02-19 12:20:00,45.1,24.0,30.15,West,273,6.0,12.0,43,0.00,,CLR,0.00,VWS V14.01,2013-02-19 18:20:00,
2013-02-19 12:25:00,45.2,24.6,30.15,West,267,7.0,15.0,44,0.00,,CLR,0.00,VWS V14.01,2013-02-19 18:25:00,
2013-02-19 12:30:00,45.6,23.3,30.15,WNW,294,5.0,8.0,41,0.00,,CLR,0.00,VWS V14.01,2013-02-19 18:30:00,
2013-02-19 12:36:00,45.7,23.9,30.15,WSW,254,17.0,17.0,42,0.00,,CLR,0.00,VWS V14.01,2013-02-19 18:36:00,
2013-02-19 12:41:00,45.7,22.8,30.15,NW,316,19.0,19.0,40,0.00,,CLR,0.00,VWS V14.01,2013-02-19 18:41:00,
2013-02-19 12:46:00,45.5,23.2,30.15,West,271,4.0,19.0,41,0.00,,CLR,0.00,VWS V14.01,2013-02-19 18:46:00,
2013-02-19 12:51:00,45.4,24.2,30.15,WNW,300,4.0,19.0,43,0.00,,CLR,0.00,VWS V14.01,2013-02-19 18:51:00,
2013-02-19 12:56:00,45.9,24.7,30.14,West,261,5.0,19.0,43,0.00,,CLR,0.00,VWS V14.01,2013-02-19 18:56:00,
2013-02-19 13:00:00,46.7,18.4,30.14,WNW,285,11.0,20.0,32,0.00,,CLR,0.00,VWS V14.01,2013-02-19 19:00:00,
2013-02-19 13:01:00,46.5,23.5,30.14,WNW,303,3.0,12.0,40,0.00,,CLR,0.00,VWS V14.01,2013-02-19 19:01:00,
2013-02-19 13:06:00,46.5,22.3,30.14,WNW,295,8.0,14.0,38,0.00,,CLR,0.00,VWS V14.01,2013-02-19 19:06:00,
2013-02-19 13:11:00,46.6,22.4,30.14,WNW,303,10.0,14.0,38,0.00,,CLR,0.00,VWS V14.01,2013-02-19 19:11:00,
2013-02-19 13:17:00,46.4,22.2,30.14,West,273,6.0,14.0,38,0.00,,CLR,0.00,VWS V14.01,2013-02-19 19:17:00,
2013-02-19 13:22:00,46.4,21.6,30.14,WNW,295,6.0,14.0,37,0.00,,CLR,0.00,VWS V14.01,2013-02-19 19:22:00,
2013-02-19 13:27:00,46.4,20.9,30.14,West,279,5.0,14.0,36,0.00,,CLR,0.00,VWS V14.01,2013-02-19 19:27:00,
2013-02-19 13:30:00,46.9,17.1,30.14,WSW,244,4.0,21.0,30,0.00,,CLR,0.00,VWS V14.01,2013-02-19 19:30:00,
2013-02-19 13:32:00,46.6,21.1,30.14,WNW,301,5.0,20.0,36,0.00,,CLR,0.00,VWS V14.01,2013-02-19 19:32:00,
2013-02-19 13:37:00,46.7,19.8,30.14,NW,305,9.0,20.0,34,0.00,,CLR,0.00,VWS V14.01,2013-02-19 19:37:00,
2013-02-19 13:42:00,46.5,19.7,30.14,WNW,293,4.0,20.0,34,0.00,,CLR,0.00,VWS V14.01,2013-02-19 19:42:00,
2013-02-19 13:47:00,46.9,20.7,30.14,WNW,286,6.0,20.0,35,0.00,,CLR,0.00,VWS V14.01,2013-02-19 19:47:00,
2013-02-19 13:52:00,46.9,19.3,30.14,NW,319,8.0,20.0,33,0.00,,CLR,0.00,VWS V14.01,2013-02-19 19:52:00,
2013-02-19 13:58:00,46.6,18.3,30.13,WSW,252,5.0,20.0,32,0.00,,CLR,0.00,VWS V14.01,2013-02-19 19:58:00,
2013-02-19 14:00:00,47.4,16.8,30.14,West,281,12.0,19.0,29,0.00,,CLR,0.00,VWS V14.01,2013-02-19 20:00:00,
2013-02-19 14:03:00,46.8,18.5,30.14,West,272,10.0,12.0,32,0.00,,CLR,0.00,VWS V14.01,2013-02-19 20:03:00,
2013-02-19 14:08:00,46.8,18.5,30.14,WNW,297,12.0,13.0,32,0.00,,CLR,0.00,VWS V14.01,2013-02-19 20:08:00,
2013-02-19 14:13:00,46.9,17.9,30.14,West,273,13.0,13.0,31,0.00,,CLR,0.00,VWS V14.01,2013-02-19 20:13:00,
2013-02-19 14:18:00,47.0,18.7,30.14,WNW,282,4.0,14.0,32,0.00,,CLR,0.00,VWS V14.01,2013-02-19 20:18:00,
2013-02-19 14:23:00,47.1,17.3,30.14,West,281,5.0,21.0,30,0.00,,CLR,0.00,VWS V14.01,2013-02-19 20:23:00,
2013-02-19 14:28:00,46.9,17.9,30.14,WNW,293,3.0,21.0,31,0.00,,CLR,0.00,VWS V14.01,2013-02-19 20:28:00,
2013-02-19 14:30:00,46.2,15.7,30.14,NW,311,5.0,18.0,29,0.00,,CLR,0.00,VWS V14.01,2013-02-19 20:30:00,
2013-02-19 14:33:00,47.0,17.2,30.14,WNW,300,4.0,12.0,30,0.00,,CLR,0.00,VWS V14.01,2013-02-19 20:33:00,
2013-02-19 14:38:00,47.3,19.0,30.14,WNW,285,5.0,13.0,32,0.00,,CLR,0.00,VWS V14.01,2013-02-19 20:38:00,
2013-02-19 14:44:00,47.6,17.7,30.14,WNW,286,11.0,14.0,30,0.00,,CLR,0.00,VWS V14.01,2013-02-19 20:44:00,
2013-02-19 14:49:00,47.6,17.7,30.14,NW,310,4.0,14.0,30,0.00,,CLR,0.00,VWS V14.01,2013-02-19 20:49:00,
2013-02-19 14:54:00,47.6,17.7,30.14,West,275,10.0,14.0,30,0.00,,CLR,0.00,VWS V14.01,2013-02-19 20:54:00,
2013-02-19 14:59:00,47.4,15.9,30.14,West,280,2.0,19.0,28,0.00,,CLR,0.00,VWS V14.01,2013-02-19 20:59:00,
2013-02-19 15:00:00,45.5,15.1,30.14,WNW,284,4.0,16.0,29,0.00,,CLR,0.00,VWS V14.01,2013-02-19 21:00:00,
2013-02-19 15:04:00,47.0,15.6,30.14,WNW,298,6.0,13.0,28,0.00,,CLR,0.00,VWS V14.01,2013-02-19 21:04:00,
2013-02-19 15:09:00,46.9,15.5,30.14,West,272,3.0,13.0,28,0.00,,CLR,0.00,VWS V14.01,2013-02-19 21:09:00,
2013-02-19 15:14:00,46.9,16.3,30.14,NW,322,4.0,13.0,29,0.00,,CLR,0.00,VWS V14.01,2013-02-19 21:14:00,
2013-02-19 15:19:00,46.8,16.2,30.14,NNW,327,5.0,13.0,29,0.00,,CLR,0.00,VWS V14.01,2013-02-19 21:19:00,
2013-02-19 15:24:00,46.6,14.4,30.14,WNW,287,10.0,18.0,27,0.00,,CLR,0.00,VWS V14.01,2013-02-19 21:24:00,
2013-02-19 15:30:00,46.2,15.7,30.14,NW,304,3.0,18.0,29,0.00,,CLR,0.00,VWS V14.01,2013-02-19 21:30:00,
2013-02-19 15:35:00,46.3,16.6,30.14,West,279,3.0,13.0,30,0.00,,CLR,0.00,VWS V14.01,2013-02-19 21:35:00,
2013-02-19 15:40:00,46.1,16.4,30.14,West,260,5.0,15.0,30,0.00,,CLR,0.00,VWS V14.01,2013-02-19 21:40:00,
2013-02-19 15:45:00,46.1,16.4,30.14,West,276,9.0,15.0,30,0.00,,CLR,0.00,VWS V14.01,2013-02-19 21:45:00,
2013-02-19 15:50:00,46.0,16.3,30.14,WSW,246,4.0,15.0,30,0.00,,CLR,0.00,VWS V14.01,2013-02-19 21:50:00,
2013-02-19 15:55:00,45.8,16.1,30.14,WSW,255,7.0,15.0,30,0.00,,CLR,0.00,VWS V14.01,2013-02-19 21:55:00,
2013-02-19 16:00:00,45.5,15.9,30.14,WSW,253,7.0,7.0,30,0.00,,CLR,0.00,VWS V14.01,2013-02-19 22:00:00,
2013-02-19 16:05:00,45.6,15.2,30.15,WNW,302,5.0,9.0,29,0.00,,CLR,0.00,VWS V14.01,2013-02-19 22:05:00,
2013-02-19 16:10:00,45.7,16.1,30.15,WNW,291,4.0,9.0,30,0.00,,CLR,0.00,VWS V14.01,2013-02-19 22:10:00,
2013-02-19 16:15:00,45.9,15.4,30.15,West,281,3.0,10.0,29,0.00,,CLR,0.00,VWS V14.01,2013-02-19 22:15:00,
2013-02-19 16:21:00,45.8,15.4,30.14,WNW,286,7.0,11.0,29,0.00,,CLR,0.00,VWS V14.01,2013-02-19 22:21:00,
2013-02-19 16:26:00,45.6,14.4,30.15,NW,317,6.0,17.0,28,0.00,,CLR,0.00,VWS V14.01,2013-02-19 22:26:00,
2013-02-19 16:30:00,42.6,14.1,30.12,NW,323,3.0,11.0,31,0.00,,CLR,0.00,VWS V14.01,2013-02-19 22:30:00,
2013-02-19 16:31:00,45.2,14.9,30.14,West,281,4.0,6.0,29,0.00,,CLR,0.00,VWS V14.01,2013-02-19 22:31:00,
2013-02-19 16:36:00,45.2,14.1,30.14,West,266,4.0,13.0,28,0.00,,CLR,0.00,VWS V14.01,2013-02-19 22:36:00,
2013-02-19 16:41:00,44.9,14.6,30.14,West,270,4.0,13.0,29,0.00,,CLR,0.00,VWS V14.01,2013-02-19 22:41:00,
2013-02-19 16:46:00,44.6,13.5,30.13,West,279,7.0,13.0,28,0.00,,CLR,0.00,VWS V14.01,2013-02-19 22:46:00,
2013-02-19 16:51:00,44.5,13.4,30.13,WNW,292,6.0,13.0,28,0.00,,CLR,0.00,VWS V14.01,2013-02-19 22:51:00,
2013-02-19 16:56:00,44.4,13.4,30.13,West,273,7.0,13.0,28,0.00,,CLR,0.00,VWS V14.01,2013-02-19 22:56:00,
2013-02-19 17:00:00,40.7,14.5,30.13,NW,306,1.0,12.0,34,0.00,,CLR,0.00,VWS V14.01,2013-02-19 23:00:00,
2013-02-19 17:01:00,44.4,14.1,30.13,WNW,298,3.0,7.0,29,0.00,,CLR,0.00,VWS V14.01,2013-02-19 23:01:00,
2013-02-19 17:06:00,44.1,13.9,30.13,WSW,249,2.0,9.0,29,0.00,,CLR,0.00,VWS V14.01,2013-02-19 23:06:00,
2013-02-19 17:11:00,43.8,14.4,30.13,NW,317,9.0,11.0,30,0.00,,CLR,0.00,VWS V14.01,2013-02-19 23:11:00,
2013-02-19 17:17:00,43.5,13.4,30.13,WNW,297,8.0,11.0,29,0.00,,CLR,0.00,VWS V14.01,2013-02-19 23:17:00,
2013-02-19 17:22:00,43.0,13.7,30.12,NW,318,6.0,11.0,30,0.00,,CLR,0.00,VWS V14.01,2013-02-19 23:22:00,
2013-02-19 17:27:00,42.7,14.2,30.12,NNW,328,1.0,11.0,31,0.00,,CLR,0.00,VWS V14.01,2013-02-19 23:27:00,
2013-02-19 17:30:00,38.7,13.4,30.14,WNW,290,4.0,7.0,35,0.00,,CLR,0.00,VWS V14.01,2013-02-19 23:30:00,
2013-02-19 17:32:00,42.5,14.7,30.12,NW,313,2.0,6.0,32,0.00,,CLR,0.00,VWS V14.01,2013-02-19 23:32:00,
2013-02-19 17:37:00,42.2,15.2,30.13,West,279,3.0,6.0,33,0.00,,CLR,0.00,VWS V14.01,2013-02-19 23:37:00,
2013-02-19 17:42:00,41.9,15.6,30.13,NW,311,6.0,11.0,34,0.00,,CLR,0.00,VWS V14.01,2013-02-19 23:42:00,
2013-02-19 17:47:00,41.5,13.9,30.13,NNW,331,7.0,12.0,32,0.00,,CLR,0.00,VWS V14.01,2013-02-19 23:47:00,
2013-02-19 17:52:00,41.2,14.3,30.13,NW,310,1.0,12.0,33,0.00,,CLR,0.00,VWS V14.01,2013-02-19 23:52:00,
2013-02-19 17:57:00,40.9,14.0,30.13,North,355,0.0,12.0,33,0.00,,CLR,0.00,VWS V14.01,2013-02-19 23:57:00,
2013-02-19 18:00:00,37.3,14.0,30.16,WNW,302,0.0,9.0,38,0.00,,CLR,0.00,VWS V14.01,2013-02-20 00:00:00,
2013-02-19 18:03:00,40.6,14.4,30.13,NW,313,0.0,5.0,34,0.00,,CLR,0.00,VWS V14.01,2013-02-20 00:03:00,
2013-02-19 18:08:00,40.1,14.7,30.13,NW,319,7.0,7.0,35,0.00,,CLR,0.00,VWS V14.01,2013-02-20 00:08:00,
2013-02-19 18:13:00,39.7,15.6,30.13,NNW,331,1.0,7.0,37,0.00,,CLR,0.00,VWS V14.01,2013-02-20 00:13:00,
2013-02-19 18:18:00,39.3,14.6,30.14,NW,310,2.0,7.0,36,0.00,,CLR,0.00,VWS V14.01,2013-02-20 00:18:00,
2013-02-19 18:23:00,38.9,13.6,30.14,WNW,291,4.0,7.0,35,0.00,,CLR,0.00,VWS V14.01,2013-02-20 00:23:00,
2013-02-19 18:28:00,38.8,13.5,30.14,NNW,332,2.0,7.0,35,0.00,,CLR,0.00,VWS V14.01,2013-02-20 00:28:00,
2013-02-19 18:30:00,35.4,15.1,30.17,NW,313,0.0,4.0,43,0.00,,CLR,0.00,VWS V14.01,2013-02-20 00:30:00,
2013-02-19 18:33:00,38.5,13.9,30.14,NW,308,1.0,6.0,36,0.00,,CLR,0.00,VWS V14.01,2013-02-20 00:33:00,
2013-02-19 18:38:00,38.3,13.7,30.15,NW,315,1.0,9.0,36,0.00,,CLR,0.00,VWS V14.01,2013-02-20 00:38:00,
2013-02-19 18:43:00,38.2,14.2,30.15,NW,313,3.0,9.0,37,0.00,,CLR,0.00,VWS V14.01,2013-02-20 00:43:00,
2013-02-19 18:48:00,37.9,14.0,30.15,NNW,338,4.0,9.0,37,0.00,,CLR,0.00,VWS V14.01,2013-02-20 00:48:00,
2013-02-19 18:54:00,37.7,14.4,30.16,WNW,294,1.0,9.0,38,0.00,,CLR,0.00,VWS V14.01,2013-02-20 00:54:00,
2013-02-19 18:59:00,37.4,14.1,30.16,NW,306,0.0,9.0,38,0.00,,CLR,0.00,VWS V14.01,2013-02-20 00:59:00,
2013-02-19 19:00:00,33.8,15.2,30.16,NW,309,1.0,4.0,46,0.00,,CLR,0.00,VWS V14.01,2013-02-20 01:00:00,
2013-02-19 19:04:00,37.1,14.4,30.16,WNW,297,4.0,4.0,39,0.00,,CLR,0.00,VWS V14.01,2013-02-20 01:04:00,
2013-02-19 19:09:00,36.9,14.3,30.16,NW,308,0.0,4.0,39,0.00,,CLR,0.00,VWS V14.01,2013-02-20 01:09:00,
2013-02-19 19:14:00,36.6,15.1,30.17,NW,306,0.0,4.0,41,0.00,,CLR,0.00,VWS V14.01,2013-02-20 01:14:00,
2013-02-19 19:19:00,36.2,15.9,30.17,WNW,302,0.0,4.0,43,0.00,,CLR,0.00,VWS V14.01,2013-02-20 01:19:00,
2013-02-19 19:24:00,35.8,15.5,30.17,NW,323,0.0,4.0,43,0.00,,CLR,0.00,VWS V14.01,2013-02-20 01:24:00,
2013-02-19 19:29:00,35.5,15.2,30.17,NW,313,0.0,4.0,43,0.00,,CLR,0.00,VWS V14.01,2013-02-20 01:29:00,
2013-02-19 19:30:00,32.2,15.7,30.16,NW,321,0.0,3.0,50,0.00,,CLR,0.00,VWS V14.01,2013-02-20 01:30:00,
2013-02-19 19:35:00,35.1,15.4,30.16,NNW,333,1.0,2.0,44,0.00,,CLR,0.00,VWS V14.01,2013-02-20 01:35:00,
2013-02-19 19:40:00,34.9,15.7,30.17,NNW,330,0.0,2.0,45,0.00,,CLR,0.00,VWS V14.01,2013-02-20 01:40:00,
2013-02-19 19:45:00,34.6,15.5,30.17,NNW,330,0.0,2.0,45,0.00,,CLR,0.00,VWS V14.01,2013-02-20 01:45:00,
2013-02-19 19:50:00,34.3,15.7,30.17,NW,315,0.0,2.0,46,0.00,,CLR,0.00,VWS V14.01,2013-02-20 01:50:00,
2013-02-19 19:55:00,34.1,15.5,30.16,NW,322,1.0,2.0,46,0.00,,CLR,0.00,VWS V14.01,2013-02-20 01:55:00,
2013-02-19 20:00:00,33.7,15.1,30.16,NW,309,0.0,1.0,46,0.00,,CLR,0.00,VWS V14.01,2013-02-20 02:00:00,
2013-02-19 20:05:00,33.4,16.8,30.16,NW,316,0.0,2.0,50,0.00,,CLR,0.00,VWS V14.01,2013-02-20 02:05:00,
2013-02-19 20:10:00,32.9,17.2,30.16,NW,315,0.0,3.0,52,0.00,,CLR,0.00,VWS V14.01,2013-02-20 02:10:00,
2013-02-19 20:15:00,32.6,16.0,30.16,NW,315,0.0,3.0,50,0.00,,CLR,0.00,VWS V14.01,2013-02-20 02:15:00,
2013-02-19 20:20:00,32.4,15.9,30.16,NW,315,1.0,3.0,50,0.00,,CLR,0.00,VWS V14.01,2013-02-20 02:20:00,
2013-02-19 20:26:00,32.3,15.3,30.16,NW,306,1.0,3.0,49,0.00,,CLR,0.00,VWS V14.01,2013-02-20 02:26:00,
2013-02-19 20:30:00,31.1,15.5,30.18,NW,319,0.0,3.0,52,0.00,,CLR,0.00,VWS V14.01,2013-02-20 02:30:00,
2013-02-19 20:31:00,32.2,16.1,30.16,NW,316,0.0,2.0,51,0.00,,CLR,0.00,VWS V14.01,2013-02-20 02:31:00,
2013-02-19 20:36:00,32.1,16.0,30.16,NW,314,2.0,3.0,51,0.00,,CLR,0.00,VWS V14.01,2013-02-20 02:36:00,
2013-02-19 20:41:00,32.1,16.0,30.16,NW,318,0.0,3.0,51,0.00,,CLR,0.00,VWS V14.01,2013-02-20 02:41:00,
2013-02-19 20:46:00,32.0,15.5,30.15,NW,319,0.0,3.0,50,0.00,,CLR,0.00,VWS V14.01,2013-02-20 02:46:00,
2013-02-19 20:51:00,31.9,15.8,30.15,NNW,327,0.0,3.0,51,0.00,,CLR,0.00,VWS V14.01,2013-02-20 02:51:00,
2013-02-19 20:56:00,31.8,15.3,30.16,NW,313,0.0,3.0,50,0.00,,CLR,0.00,VWS V14.01,2013-02-20 02:56:00,
2013-02-19 21:00:00,30.7,16.5,30.20,WNW,298,0.0,2.0,55,0.00,,CLR,0.00,VWS V14.01,2013-02-20 03:00:00,
2013-02-19 21:01:00,31.7,16.1,30.16,NW,319,0.0,1.0,52,0.00,,CLR,0.00,VWS V14.01,2013-02-20 03:01:00,
2013-02-19 21:06:00,31.5,15.9,30.16,NW,310,0.0,2.0,52,0.00,,CLR,0.00,VWS V14.01,2013-02-20 03:06:00,
2013-02-19 21:12:00,31.3,15.7,30.17,WNW,297,1.0,2.0,52,0.00,,CLR,0.00,VWS V14.01,2013-02-20 03:12:00,
2013-02-19 21:17:00,31.2,16.1,30.17,NNW,328,0.0,3.0,53,0.00,,CLR,0.00,VWS V14.01,2013-02-20 03:17:00,
2013-02-19 21:22:00,31.2,15.6,30.17,NW,324,0.0,3.0,52,0.00,,CLR,0.00,VWS V14.01,2013-02-20 03:22:00,
2013-02-19 21:27:00,31.2,15.6,30.18,NW,319,1.0,3.0,52,0.00,,CLR,0.00,VWS V14.01,2013-02-20 03:27:00,
2013-02-19 21:30:00,30.2,16.0,30.20,NW,309,0.0,4.0,55,0.00,,CLR,0.00,VWS V14.01,2013-02-20 03:30:00,
2013-02-19 21:32:00,31.1,15.5,30.18,NW,319,0.0,0.0,52,0.00,,CLR,0.00,VWS V14.01,2013-02-20 03:32:00,
2013-02-19 21:37:00,31.1,15.5,30.18,NW,319,0.0,0.0,52,0.00,,CLR,0.00,VWS V14.01,2013-02-20 03:37:00,
2013-02-19 21:42:00,31.2,15.2,30.19,NW,319,0.0,0.0,51,0.00,,CLR,0.00,VWS V14.01,2013-02-20 03:42:00,
2013-02-19 21:47:00,31.1,15.5,30.19,NW,319,0.0,0.0,52,0.00,,CLR,0.00,VWS V14.01,2013-02-20 03:47:00,
2013-02-19 21:52:00,31.0,15.9,30.19,NW,320,1.0,2.0,53,0.00,,CLR,0.00,VWS V14.01,2013-02-20 03:52:00,
2013-02-19 21:58:00,30.8,16.5,30.19,WNW,298,0.0,2.0,55,0.00,,CLR,0.00,VWS V14.01,2013-02-20 03:58:00,
2013-02-19 22:00:00,29.8,16.0,30.19,NNW,333,0.0,1.0,56,0.00,,CLR,0.00,VWS V14.01,2013-02-20 04:00:00,
2013-02-19 22:03:00,30.6,16.4,30.20,WNW,298,0.0,0.0,55,0.00,,CLR,0.00,VWS V14.01,2013-02-20 04:03:00,
2013-02-19 22:08:00,30.4,16.6,30.20,WNW,298,0.0,0.0,56,0.00,,CLR,0.00,VWS V14.01,2013-02-20 04:08:00,
2013-02-19 22:13:00,30.3,16.5,30.19,WNW,295,0.0,1.0,56,0.00,,CLR,0.00,VWS V14.01,2013-02-20 04:13:00,
2013-02-19 22:18:00,30.3,16.1,30.19,WNW,295,0.0,3.0,55,0.00,,CLR,0.00,VWS V14.01,2013-02-20 04:18:00,
2013-02-19 22:23:00,30.3,16.5,30.20,NW,309,0.0,4.0,56,0.00,,CLR,0.00,VWS V14.01,2013-02-20 04:23:00,
2013-02-19 22:28:00,30.2,16.4,30.20,NW,309,0.0,4.0,56,0.00,,CLR,0.00,VWS V14.01,2013-02-20 04:28:00,
2013-02-19 22:30:00,29.4,15.7,30.19,NNW,336,2.0,3.0,56,0.00,,CLR,0.00,VWS V14.01,2013-02-20 04:30:00,
2013-02-19 22:33:00,30.2,15.6,30.20,NW,309,0.0,0.0,54,0.00,,CLR,0.00,VWS V14.01,2013-02-20 04:33:00,
2013-02-19 22:38:00,30.2,16.4,30.20,NW,313,0.0,1.0,56,0.00,,CLR,0.00,VWS V14.01,2013-02-20 04:38:00,
2013-02-19 22:44:00,30.1,15.9,30.20,NW,313,0.0,1.0,55,0.00,,CLR,0.00,VWS V14.01,2013-02-20 04:44:00,
2013-02-19 22:49:00,30.0,16.2,30.20,NW,313,0.0,1.0,56,0.00,,CLR,0.00,VWS V14.01,2013-02-20 04:49:00,
2013-02-19 22:54:00,29.9,16.1,30.20,NW,321,0.0,1.0,56,0.00,,CLR,0.00,VWS V14.01,2013-02-20 04:54:00,
2013-02-19 22:59:00,29.8,16.0,30.19,NNW,333,0.0,1.0,56,0.00,,CLR,0.00,VWS V14.01,2013-02-20 04:59:00,
2013-02-19 23:00:00,29.8,16.0,30.19,NNW,333,0.0,1.0,56,0.00,,CLR,0.00,VWS V14.01,2013-02-20 05:00:00,
2013-02-19 23:01:00,29.8,16.0,30.19,NNW,333,0.0,0.0,56,0.00,,CLR,0.00,VWS V14.01,2013-02-20 05:01:00,
2013-02-19 23:06:00,29.7,16.4,30.19,NNW,331,0.0,2.0,57,0.00,,CLR,0.00,VWS V14.01,2013-02-20 05:06:00,
2013-02-19 23:12:00,29.6,15.4,30.19,NNW,330,0.0,2.0,55,0.00,,CLR,0.00,VWS V14.01,2013-02-20 05:12:00,
2013-02-19 23:17:00,29.6,15.4,30.19,NNW,331,1.0,2.0,55,0.00,,CLR,0.00,VWS V14.01,2013-02-20 05:17:00,
2013-02-19 23:22:00,29.5,15.3,30.19,NW,305,0.0,3.0,55,0.00,,CLR,0.00,VWS V14.01,2013-02-20 05:22:00,
2013-02-19 23:27:00,29.4,15.7,30.19,NW,312,2.0,3.0,56,0.00,,CLR,0.00,VWS V14.01,2013-02-20 05:27:00,
2013-02-19 23:30:00,28.5,14.0,30.20,North,360,0.0,1.0,54,0.00,,CLR,0.00,VWS V14.01,2013-02-20 05:30:00,
2013-02-19 23:32:00,29.3,16.0,30.19,NNW,332,0.0,2.0,57,0.00,,CLR,0.00,VWS V14.01,2013-02-20 05:32:00,
2013-02-19 23:37:00,29.2,15.9,30.19,NNW,333,0.0,2.0,57,0.00,,CLR,0.00,VWS V14.01,2013-02-20 05:37:00,
2013-02-19 23:42:00,29.0,15.7,30.19,NW,324,0.0,2.0,57,0.00,,CLR,0.00,VWS V14.01,2013-02-20 05:42:00,
2013-02-19 23:47:00,29.0,15.3,30.20,NW,323,0.0,2.0,56,0.00,,CLR,0.00,VWS V14.01,2013-02-20 05:47:00,
2013-02-19 23:52:00,28.9,15.6,30.19,NW,323,0.0,2.0,57,0.00,,CLR,0.00,VWS V14.01,2013-02-20 05:52:00,
2013-02-19 23:57:00,28.7,15.8,30.19,NNW,330,0.0,2.0,58,0.00,,CLR,0.00,VWS V14.01,2013-02-20 05:57:00,